Find STARLINK-37463

NORAD ID: 68854 Int'l Des: 2026-094R Owner: SPXS Country: US Constellation: starlink operational
LEOCIRCULARRETROGRADE

当前视图

正在加载3D地球...

About STARLINK-37463

STARLINK-37463 (NORAD 68854) is a starlink constellation satellite (v2 mini) launched Apr 26, 2026 by SPXS of US. It operates in LEO, CIRCULAR, RETROGRADE orbit with a mass of 575.00 kg.

关于 STARLINK-37463

正在加载描述...

即将过境

Passes for default location (London). Set your location on the main map for personalized predictions.

高度历史

Loading altitude history...

两行轨道根数

1 68854U 26094R 26166.95219347 .00014181 00000-0 44063-3 0 9998
2 68854 97.2826 181.4815 0001799 94.3383 265.8066 15.33454130 7864
Epoch: Jun 15, 2026 • Age: 9 hours

当前状态

高度 494.3 km
速度 7.62 km/s
星下点 -76.59°S, 169.13°W
发射日期 Apr 26, 2026
运行时间 0.1 years
类型 internet

技术详情

分类 Payload
质量 575.00 kg
干质量 530.00 kg
总质量 575.00 kg
长度 0.30 m
直径 4.10 m
跨度 29.00 m
形状 Box + pan
制造商 SPXS
平台类型 Starlink V2MO
阶段状态 In Orbit
所有者/国家 SPXS/US

Most Searched